Buoy 46612

sailwx.info

Track history (hours):
 
Tides and Currents Weather Stations Pressure Air Temp Water Temp Dewpoint Dewpoint Depression Visibility Wind Speed Wind Dir Waves Ship Positions

Drifting buoy 46612

Last reported at 2014-Oct-21 14:00 UTC. Time now 2014-Oct-21 20:06 UTC.
Position N 28°15' W 139°00'.

Water temperature 24.0 ° C

Date/timePositionNaut miles runAvg speedWind from/ knotsBaromVisibWave heightAir tempDewpointWater temp
2014-Oct-21 14:00N 28°15' W 139°00'0 0.0 24.0
2014-Oct-21 12:00N 28°15' W 139°00'1 0.1 24.0
2014-Oct-21 07:00N 28°15' W 138°60'0 0.0 24.0
2014-Oct-21 06:00N 28°15' W 138°60'0 0.3 24.0
2014-Oct-21 05:00N 28°15' W 138°60'0 0.0 24.0
2014-Oct-21 04:00N 28°15' W 138°60'0 0.1 24.0
2014-Oct-21 03:00N 28°15' W 138°60'0 0.1 24.1
2014-Oct-21 00:00N 28°15' W 138°60'0 0.2 24.1
2014-Oct-20 22:00N 28°14' W 138°60'1 0.7 24.1
2014-Oct-20 21:00N 28°15' W 138°59'0 0.0 24.1
2014-Oct-20 19:00N 28°15' W 138°59'0 0.1 24.1
2014-Oct-20 18:00N 28°15' W 138°59'0 0.0 24.1
2014-Oct-20 17:00N 28°15' W 138°59'0 0.0 24.0
2014-Oct-20 16:00N 28°15' W 138°59'1 0.4 24.0
2014-Oct-20 14:00N 28°14' W 138°59'0 0.0 24.1
2014-Oct-20 13:00N 28°14' W 138°59'0 0.2 24.1
2014-Oct-20 12:00N 28°14' W 138°58'0 0.2 24.1
2014-Oct-20 11:00N 28°14' W 138°59'1 0.2 24.1
2014-Oct-20 07:00N 28°13' W 138°58'0 0.2 24.1
2014-Oct-20 05:00N 28°13' W 138°57'1 0.9 24.1
2014-Oct-20 04:00N 28°13' W 138°56'0 0.2 24.1
2014-Oct-20 02:00N 28°13' W 138°56'0 0.2 24.1
2014-Oct-20 01:00N 28°13' W 138°56'0 0.5 24.2
2014-Oct-20 00:00N 28°13' W 138°55'0 0.1 24.2
2014-Oct-19 22:00N 28°13' W 138°55'0 0.5 24.2
2014-Oct-19 21:00N 28°13' W 138°55'1 0.7 24.2
2014-Oct-19 20:00N 28°14' W 138°55'0 0.4 24.1
2014-Oct-19 19:00N 28°14' W 138°55'0 0.2 24.2
2014-Oct-19 18:00N 28°15' W 138°55'0 0.1 24.1
2014-Oct-19 14:00N 28°14' W 138°55'2 0.2 24.1
2014-Oct-19 05:00N 28°14' W 138°53'0 0.0 24.2
2014-Oct-19 04:00N 28°14' W 138°53'0 0.4 24.2
2014-Oct-19 03:00N 28°14' W 138°53'0 0.2 24.2
2014-Oct-19 02:00N 28°14' W 138°53'1 0.5 24.3
2014-Oct-19 00:00N 28°15' W 138°54'0 0.0 24.3
2014-Oct-18 23:00N 28°15' W 138°54'0 0.1 24.4
2014-Oct-18 22:00N 28°15' W 138°54'1 0.1 24.4
2014-Oct-18 18:00N 28°15' W 138°54'1 0.2 24.1
2014-Oct-18 15:00N 28°14' W 138°55'0 0.3 24.0
2014-Oct-18 14:00N 28°14' W 138°55'0 0.3 24.1
2014-Oct-18 13:00N 28°14' W 138°54'0 0.1 24.1
2014-Oct-18 10:00N 28°14' W 138°54'0 0.2 24.1
2014-Oct-18 07:00N 28°14' W 138°54'0 0.4 24.1
2014-Oct-18 06:00N 28°14' W 138°54'1 0.7 24.1
2014-Oct-18 05:00N 28°14' W 138°53'1 0.2 24.1
2014-Oct-18 02:00N 28°14' W 138°54'1 0.4 24.2
2014-Oct-18 00:00N 28°13' W 138°53'1 0.7 24.3
2014-Oct-17 22:00N 28°14' W 138°53'0 0.1 24.4
2014-Oct-17 20:00N 28°14' W 138°53'1 0.6 24.1
2014-Oct-17 19:00N 28°14' W 138°54'0 0.0 24.1
2014-Oct-17 18:00N 28°14' W 138°54'0 0.4 24.1
2014-Oct-17 17:00N 28°14' W 138°54'0 0.2 24.0
2014-Oct-17 16:00N 28°14' W 138°54'0 0.0 24.0
2014-Oct-17 15:00N 28°14' W 138°54'0 0.2 24.0
2014-Oct-17 14:00N 28°14' W 138°54'0 0.2 24.0
2014-Oct-17 13:00N 28°14' W 138°54'1 0.6 24.0
2014-Oct-17 12:00N 28°13' W 138°54'0 0.1 24.0
2014-Oct-17 07:00N 28°14' W 138°54'1 0.3 24.1
2014-Oct-17 05:00N 28°14' W 138°54'0 0.0 24.1
2014-Oct-17 04:00N 28°14' W 138°54'0 0.0 24.1
2014-Oct-17 03:00N 28°14' W 138°54'0 0.1 24.1
2014-Oct-17 02:00N 28°14' W 138°54'0 0.2 24.1
2014-Oct-17 00:00N 28°14' W 138°54'1 0.8 24.2
2014-Oct-16 23:00N 28°15' W 138°54'1 0.4 24.2
2014-Oct-16 21:00N 28°15' W 138°55'0 0.1 24.2
2014-Oct-16 20:00N 28°14' W 138°55'1 0.5 24.1
2014-Oct-16 19:00N 28°15' W 138°55'1 0.3 24.1
2014-Oct-16 17:00N 28°14' W 138°56'1 0.2 24.0
2014-Oct-16 12:00N 28°13' W 138°56'0 0.0 24.1
2014-Oct-16 11:00N 28°13' W 138°56'2 0.4 24.1
2014-Oct-16 07:00N 28°13' W 138°54'0 0.0 24.1
2014-Oct-16 06:00N 28°13' W 138°54'1 0.7 24.2
2014-Oct-16 05:00N 28°12' W 138°54'1 0.2 24.2
2014-Oct-16 01:00N 28°13' W 138°54'1 0.7 24.5
2014-Oct-16 00:00N 28°14' W 138°53'1 0.2 24.6
2014-Oct-15 19:00N 28°14' W 138°54'1 0.3 24.2
2014-Oct-15 17:00N 28°14' W 138°55'2 0.6 24.1
2014-Oct-15 13:00N 28°12' W 138°54'1 0.2 24.0
2014-Oct-15 06:00N 28°13' W 138°53'1 0.3 24.1
2014-Oct-15 03:00N 28°14' W 138°53'0 0.4 24.1
2014-Oct-15 02:00N 28°13' W 138°53'0 0.2 24.1
2014-Oct-15 01:00N 28°13' W 138°52'0 0.2 24.2
2014-Oct-14 23:00N 28°13' W 138°52'0 0.3 24.2
2014-Oct-14 22:00N 28°13' W 138°52'1 0.3 24.3
2014-Oct-14 20:00N 28°12' W 138°52'0 0.0 24.3
2014-Oct-14 19:00N 28°12' W 138°52'1 0.2 24.1
2014-Oct-14 15:00N 28°13' W 138°51'0 0.0 24.1
2014-Oct-14 13:00N 28°13' W 138°51'0 0.1 24.1
2014-Oct-14 12:00N 28°13' W 138°52'0 0.2 24.1
2014-Oct-14 11:00N 28°13' W 138°52'0 0.1 24.1
2014-Oct-14 06:00N 28°13' W 138°51'0 0.4 24.2
2014-Oct-14 05:00N 28°12' W 138°51'1 0.3 24.2
2014-Oct-14 03:00N 28°12' W 138°51'0 0.1 24.2
2014-Oct-14 01:00N 28°12' W 138°51'0 0.1 24.3
2014-Oct-14 00:00N 28°12' W 138°51'0 0.3 24.4
2014-Oct-13 23:00N 28°12' W 138°50'0 0.1 24.4
2014-Oct-13 22:00N 28°12' W 138°50'0 0.1 24.3
2014-Oct-13 18:00N 28°12' W 138°50'0 0.1 24.1
2014-Oct-13 15:00N 28°12' W 138°50'0 0.1 24.1
2014-Oct-13 14:00N 28°12' W 138°50'0 0.1 24.1
2014-Oct-13 12:00N 28°12' W 138°50'0 0.1 24.1
2014-Oct-13 07:00N 28°12' W 138°50'0 0.4 24.2
2014-Oct-13 06:00N 28°12' W 138°50'1 0.3 24.2
2014-Oct-13 03:00N 28°11' W 138°50'0 0.0 24.2
2014-Oct-13 02:00N 28°11' W 138°50'0 0.1 24.2
2014-Oct-13 01:00N 28°11' W 138°50'1 0.5 24.3
2014-Oct-13 00:00N 28°10' W 138°50'1 0.6 24.3
2014-Oct-12 23:00N 28°10' W 138°49'0 0.2 24.3
2014-Oct-12 22:00N 28°10' W 138°49'1 0.2 24.2
2014-Oct-12 19:00N 28°10' W 138°48'0 0.2 24.2
2014-Oct-12 18:00N 28°11' W 138°48'0 0.1 24.1
2014-Oct-12 14:00N 28°11' W 138°49'0 0.1 24.1
2014-Oct-12 13:00N 28°10' W 138°49'0 0.1 24.2
2014-Oct-12 12:00N 28°10' W 138°49'1 0.2 24.2
2014-Oct-12 07:00N 28°09' W 138°48'0 0.4 24.2
2014-Oct-12 06:00N 28°09' W 138°49'0 0.1 24.2
2014-Oct-12 05:00N 28°09' W 138°49'1 0.9 24.2
2014-Oct-12 04:00N 28°09' W 138°48'0 0.0 24.2
2014-Oct-12 01:00N 28°09' W 138°48'0 0.4 24.3
2014-Oct-12 00:00N 28°08' W 138°48'0 0.4 24.3
2014-Oct-11 23:00N 28°09' W 138°48'0 0.1 24.3
2014-Oct-11 22:00N 28°09' W 138°48'0 0.0 24.3
2014-Oct-11 21:00N 28°09' W 138°48'1 0.7 24.3
2014-Oct-11 20:00N 28°08' W 138°47'0 0.2 24.2
2014-Oct-11 17:00N 28°08' W 138°47'0 0.0 24.2
2014-Oct-11 16:00N 28°08' W 138°47'   24.2
Track history (hours):
 
Tides and Currents Weather Stations Pressure Air Temp Water Temp Dewpoint Dewpoint Depression Visibility Wind Speed Wind Dir Waves Ship Positions

Drifting buoy 46612

Last reported at 2014-Oct-21 14:00 UTC. Time now 2014-Oct-21 20:06 UTC.
Position N 28°15' W 139°00'.

Water temperature 24.0 ° C

Date/timePositionNaut miles runAvg speedWind from/ knotsBaromVisibWave heightAir tempDewpointWater temp
2014-Oct-21 14:00N 28°15' W 139°00'0 0.0 24.0
2014-Oct-21 12:00N 28°15' W 139°00'1 0.1 24.0
2014-Oct-21 07:00N 28°15' W 138°60'0 0.0 24.0
2014-Oct-21 06:00N 28°15' W 138°60'0 0.3 24.0
2014-Oct-21 05:00N 28°15' W 138°60'0 0.0 24.0
2014-Oct-21 04:00N 28°15' W 138°60'0 0.1 24.0
2014-Oct-21 03:00N 28°15' W 138°60'0 0.1 24.1
2014-Oct-21 00:00N 28°15' W 138°60'0 0.2 24.1
2014-Oct-20 22:00N 28°14' W 138°60'1 0.7 24.1
2014-Oct-20 21:00N 28°15' W 138°59'0 0.0 24.1
2014-Oct-20 19:00N 28°15' W 138°59'0 0.1 24.1
2014-Oct-20 18:00N 28°15' W 138°59'0 0.0 24.1
2014-Oct-20 17:00N 28°15' W 138°59'0 0.0 24.0
2014-Oct-20 16:00N 28°15' W 138°59'1 0.4 24.0
2014-Oct-20 14:00N 28°14' W 138°59'0 0.0 24.1
2014-Oct-20 13:00N 28°14' W 138°59'0 0.2 24.1
2014-Oct-20 12:00N 28°14' W 138°58'0 0.2 24.1
2014-Oct-20 11:00N 28°14' W 138°59'1 0.2 24.1
2014-Oct-20 07:00N 28°13' W 138°58'0 0.2 24.1
2014-Oct-20 05:00N 28°13' W 138°57'1 0.9 24.1
2014-Oct-20 04:00N 28°13' W 138°56'0 0.2 24.1
2014-Oct-20 02:00N 28°13' W 138°56'0 0.2 24.1
2014-Oct-20 01:00N 28°13' W 138°56'0 0.5 24.2
2014-Oct-20 00:00N 28°13' W 138°55'0 0.1 24.2
2014-Oct-19 22:00N 28°13' W 138°55'0 0.5 24.2
2014-Oct-19 21:00N 28°13' W 138°55'1 0.7 24.2
2014-Oct-19 20:00N 28°14' W 138°55'0 0.4 24.1
2014-Oct-19 19:00N 28°14' W 138°55'0 0.2 24.2
2014-Oct-19 18:00N 28°15' W 138°55'0 0.1 24.1
2014-Oct-19 14:00N 28°14' W 138°55'2 0.2 24.1
2014-Oct-19 05:00N 28°14' W 138°53'0 0.0 24.2
2014-Oct-19 04:00N 28°14' W 138°53'0 0.4 24.2
2014-Oct-19 03:00N 28°14' W 138°53'0 0.2 24.2
2014-Oct-19 02:00N 28°14' W 138°53'1 0.5 24.3
2014-Oct-19 00:00N 28°15' W 138°54'0 0.0 24.3
2014-Oct-18 23:00N 28°15' W 138°54'0 0.1 24.4
2014-Oct-18 22:00N 28°15' W 138°54'1 0.1 24.4
2014-Oct-18 18:00N 28°15' W 138°54'1 0.2 24.1
2014-Oct-18 15:00N 28°14' W 138°55'0 0.3 24.0
2014-Oct-18 14:00N 28°14' W 138°55'0 0.3 24.1
2014-Oct-18 13:00N 28°14' W 138°54'0 0.1 24.1
2014-Oct-18 10:00N 28°14' W 138°54'0 0.2 24.1
2014-Oct-18 07:00N 28°14' W 138°54'0 0.4 24.1
2014-Oct-18 06:00N 28°14' W 138°54'1 0.7 24.1
2014-Oct-18 05:00N 28°14' W 138°53'1 0.2 24.1
2014-Oct-18 02:00N 28°14' W 138°54'1 0.4 24.2
2014-Oct-18 00:00N 28°13' W 138°53'1 0.7 24.3
2014-Oct-17 22:00N 28°14' W 138°53'0 0.1 24.4
2014-Oct-17 20:00N 28°14' W 138°53'1 0.6 24.1
2014-Oct-17 19:00N 28°14' W 138°54'0 0.0 24.1
2014-Oct-17 18:00N 28°14' W 138°54'0 0.4 24.1
2014-Oct-17 17:00N 28°14' W 138°54'0 0.2 24.0
2014-Oct-17 16:00N 28°14' W 138°54'0 0.0 24.0
2014-Oct-17 15:00N 28°14' W 138°54'0 0.2 24.0
2014-Oct-17 14:00N 28°14' W 138°54'0 0.2 24.0
2014-Oct-17 13:00N 28°14' W 138°54'1 0.6 24.0
2014-Oct-17 12:00N 28°13' W 138°54'0 0.1 24.0
2014-Oct-17 07:00N 28°14' W 138°54'1 0.3 24.1
2014-Oct-17 05:00N 28°14' W 138°54'0 0.0 24.1
2014-Oct-17 04:00N 28°14' W 138°54'0 0.0 24.1
2014-Oct-17 03:00N 28°14' W 138°54'0 0.1 24.1
2014-Oct-17 02:00N 28°14' W 138°54'0 0.2 24.1
2014-Oct-17 00:00N 28°14' W 138°54'1 0.8 24.2
2014-Oct-16 23:00N 28°15' W 138°54'1 0.4 24.2
2014-Oct-16 21:00N 28°15' W 138°55'0 0.1 24.2
2014-Oct-16 20:00N 28°14' W 138°55'1 0.5 24.1
2014-Oct-16 19:00N 28°15' W 138°55'1 0.3 24.1
2014-Oct-16 17:00N 28°14' W 138°56'1 0.2 24.0
2014-Oct-16 12:00N 28°13' W 138°56'0 0.0 24.1
2014-Oct-16 11:00N 28°13' W 138°56'2 0.4 24.1
2014-Oct-16 07:00N 28°13' W 138°54'0 0.0 24.1
2014-Oct-16 06:00N 28°13' W 138°54'1 0.7 24.2
2014-Oct-16 05:00N 28°12' W 138°54'1 0.2 24.2
2014-Oct-16 01:00N 28°13' W 138°54'1 0.7 24.5
2014-Oct-16 00:00N 28°14' W 138°53'1 0.2 24.6
2014-Oct-15 19:00N 28°14' W 138°54'1 0.3 24.2
2014-Oct-15 17:00N 28°14' W 138°55'2 0.6 24.1
2014-Oct-15 13:00N 28°12' W 138°54'1 0.2 24.0
2014-Oct-15 06:00N 28°13' W 138°53'1 0.3 24.1
2014-Oct-15 03:00N 28°14' W 138°53'0 0.4 24.1
2014-Oct-15 02:00N 28°13' W 138°53'0 0.2 24.1
2014-Oct-15 01:00N 28°13' W 138°52'0 0.2 24.2
2014-Oct-14 23:00N 28°13' W 138°52'0 0.3 24.2
2014-Oct-14 22:00N 28°13' W 138°52'1 0.3 24.3
2014-Oct-14 20:00N 28°12' W 138°52'0 0.0 24.3
2014-Oct-14 19:00N 28°12' W 138°52'1 0.2 24.1
2014-Oct-14 15:00N 28°13' W 138°51'0 0.0 24.1
2014-Oct-14 13:00N 28°13' W 138°51'0 0.1 24.1
2014-Oct-14 12:00N 28°13' W 138°52'0 0.2 24.1
2014-Oct-14 11:00N 28°13' W 138°52'0 0.1 24.1
2014-Oct-14 06:00N 28°13' W 138°51'0 0.4 24.2
2014-Oct-14 05:00N 28°12' W 138°51'1 0.3 24.2
2014-Oct-14 03:00N 28°12' W 138°51'0 0.1 24.2
2014-Oct-14 01:00N 28°12' W 138°51'0 0.1 24.3
2014-Oct-14 00:00N 28°12' W 138°51'0 0.3 24.4
2014-Oct-13 23:00N 28°12' W 138°50'0 0.1 24.4
2014-Oct-13 22:00N 28°12' W 138°50'0 0.1 24.3
2014-Oct-13 18:00N 28°12' W 138°50'0 0.1 24.1
2014-Oct-13 15:00N 28°12' W 138°50'0 0.1 24.1
2014-Oct-13 14:00N 28°12' W 138°50'0 0.1 24.1
2014-Oct-13 12:00N 28°12' W 138°50'0 0.1 24.1
2014-Oct-13 07:00N 28°12' W 138°50'0 0.4 24.2
2014-Oct-13 06:00N 28°12' W 138°50'1 0.3 24.2
2014-Oct-13 03:00N 28°11' W 138°50'0 0.0 24.2
2014-Oct-13 02:00N 28°11' W 138°50'0 0.1 24.2
2014-Oct-13 01:00N 28°11' W 138°50'1 0.5 24.3
2014-Oct-13 00:00N 28°10' W 138°50'1 0.6 24.3
2014-Oct-12 23:00N 28°10' W 138°49'0 0.2 24.3
2014-Oct-12 22:00N 28°10' W 138°49'1 0.2 24.2
2014-Oct-12 19:00N 28°10' W 138°48'0 0.2 24.2
2014-Oct-12 18:00N 28°11' W 138°48'0 0.1 24.1
2014-Oct-12 14:00N 28°11' W 138°49'0 0.1 24.1
2014-Oct-12 13:00N 28°10' W 138°49'0 0.1 24.2
2014-Oct-12 12:00N 28°10' W 138°49'1 0.2 24.2
2014-Oct-12 07:00N 28°09' W 138°48'0 0.4 24.2
2014-Oct-12 06:00N 28°09' W 138°49'0 0.1 24.2
2014-Oct-12 05:00N 28°09' W 138°49'1 0.9 24.2
2014-Oct-12 04:00N 28°09' W 138°48'0 0.0 24.2
2014-Oct-12 01:00N 28°09' W 138°48'0 0.4 24.3
2014-Oct-12 00:00N 28°08' W 138°48'0 0.4 24.3
2014-Oct-11 23:00N 28°09' W 138°48'0 0.1 24.3
2014-Oct-11 22:00N 28°09' W 138°48'0 0.0 24.3
2014-Oct-11 21:00N 28°09' W 138°48'1 0.7 24.3
2014-Oct-11 20:00N 28°08' W 138°47'0 0.2 24.2
2014-Oct-11 17:00N 28°08' W 138°47'0 0.0 24.2
2014-Oct-11 16:00N 28°08' W 138°47'   24.2

Dump ship's entire track history